Tracking 31027 objects as of 19-Jul-2025
HD Live streaming from Space Station
objects crossing your sky now

STARLINK-1510

Track STARLINK-1510 now!
10-day predictions
STARLINK-1510 is classified as:


NORAD ID: 45784
Int'l Code: 2020-038BG
Perigee: 437.7 km
Apogee: 441.9 km
Inclination: 53.0 °
Period: 93.2 minutes
Semi major axis: 6810 km
RCS: Unknown
Launch date: June 13, 2020
Source: United States (US)
Launch site: AIR FORCE EASTERN TEST RANGE (AFETR)
Your satellite tracking list
SL-8 DEB
Track 1 satellite(s)




NASA's NSSDC Master Catalog

Two Line Element Set (TLE):
1 45784U 20038BG  25199.51392301  .00085336  00000-0  17974-2 0  9996
2 45784  53.0384 126.0262 0003117 119.5841 240.5476 15.44555356282051
Source of the keplerian elements: AFSPC